C/2022 J2 ( Bok )

Japanese version
Home page
Updated on July 16, 2022

---------------------------------------------------------------------

* Profile

Discovery Date May 9, 2022
Magnitude 21.5 mag
Discoverer Bok survey, Kitt Peak

* Orbital Elements

Epoch 2022 Aug. 9.0 TT = JDT 2459800.5
T 2022 Oct. 27.11224 TT                                 Rudenko
q   1.8266669            (2000.0)            P               Q
z  +0.0110496      Peri.  133.09800     -0.39275345     +0.77821042
 +/-0.0000315      Node   252.54898     +0.62119194     +0.61741163
e   0.9798160      Incl.  149.09096     +0.67813369     -0.11485390
From 48 observations 2022 May 9-June 26, mean residual 0".3.

* Magnitudes Graph

        H = 17.0  G = 0.15

---------------------------------------------------------------------

The orbital elements are published on M.P.E.C. 2022-N37.
The magnitudes graphs are made with Comet for Windows.

---------------------------------------------------------------------

Copyright(C) Seiichi Yoshida (comet@aerith.net). All rights reserved.